AEHF-1 (USA 214)

Last updated on Thu Oct 30 2025 00:02:48 GMT+0000 (Coordinated Universal Time)

1 36868U 10039A 25302.47705773 .00000162 00000+0 00000+0 0 9993 2 36868 7.6461 70.9567 0004469 145.3059 23.4782 1.00271931 51344
UTC large
Height (km)
Speed (km/s)
/
Latitude / Longitude
Inclination (degrees)
Orbital Period (minutes)
Azimuth
Elevation
Range (km)
Doppler Factor

Next 0 passes for location: London (51.5072 / 0.1276)

Sorry there are no passes over London.